When you browse on this site, cookies collect data to enhance your experience and personalize the content and advertising you see.
Visit our Privacy Policy to learn more. By continuing to use the site, you agree to this use of cookies and data.
  • en Suisse
  • Liste des pays
  • À 7 jours
  • Température de l'eau
  • Carte météo
  • Widgets météo
  • user-avatar
    Se connecter

    Météo par heure à Mochudi

    Ce jour, 5 Avril, Dimanche

    Heure Température Précipitation Vent Pression Humidité
    00:00 +20°C° 0 mm 1 m/s 681 mmHg 66%
    01:00 +19°C° 0 mm 1 m/s 680 mmHg 70%
    02:00 +18°C° 0 mm 1 m/s 680 mmHg 73%
    03:00 +18°C° 0 mm 1 m/s 680 mmHg 76%
    04:00 +15°C° 0 mm 0 m/s 680 mmHg 79%
    05:00 +15°C° 0 mm 0 m/s 680 mmHg 82%
    06:00 +16°C° 0 mm 0 m/s 680 mmHg 76%
    07:00 +18°C° 0 mm 0 m/s 681 mmHg 71%
    08:00 +21°C° 0 mm 1 m/s 681 mmHg 65%
    09:00 +24°C° 0 mm 1 m/s 682 mmHg 54%
    10:00 +27°C° 0 mm 1 m/s 682 mmHg 43%
    11:00 +30°C° 0 mm 1 m/s 682 mmHg 32%
    12:00 +31°C° 0 mm 2 m/s 682 mmHg 28%
    13:00 +31°C° 0 mm 2 m/s 681 mmHg 24%
    14:00 +33°C° 0 mm 3 m/s 681 mmHg 20%
    15:00 +33°C° 0 mm 3 m/s 680 mmHg 20%
    16:00 +32°C° 0 mm 2 m/s 680 mmHg 19%
    17:00 +32°C° 0 mm 2 m/s 679 mmHg 18%
    18:00 +29°C° 0 mm 2 m/s 679 mmHg 22%
    19:00 +27°C° 0 mm 2 m/s 679 mmHg 26%
    20:00 +24°C° 0 mm 1 m/s 679 mmHg 30%
    21:00 +23°C° 0 mm 1 m/s 679 mmHg 31%
    22:00 +22°C° 0 mm 1 m/s 679 mmHg 32%
    23:00 +21°C° 0 mm 1 m/s 679 mmHg 33%

    Demain, 6 Avril, Lundi

    Heure Température Précipitation Vent Pression Humidité
    00:00 +21°C° 0 mm 1 m/s 679 mmHg 34%
    01:00 +20°C° 0 mm 1 m/s 678 mmHg 36%
    02:00 +20°C° 0 mm 1 m/s 678 mmHg 37%
    03:00 +17°C° 0 mm 0 m/s 678 mmHg 38%
    04:00 +17°C° 0 mm 0 m/s 678 mmHg 39%
    05:00 +16°C° 0 mm 0 m/s 677 mmHg 40%
    06:00 +18°C° 0 mm 0 m/s 678 mmHg 38%
    07:00 +19°C° 0 mm 0 m/s 679 mmHg 35%
    08:00 +23°C° 0 mm 1 m/s 679 mmHg 33%
    09:00 +26°C° 0 mm 1 m/s 680 mmHg 29%
    10:00 +29°C° 0 mm 1 m/s 680 mmHg 25%
    11:00 +32°C° 0 mm 2 m/s 681 mmHg 20%
    12:00 +34°C° 0 mm 2 m/s 680 mmHg 18%
    13:00 +35°C° 0 mm 3 m/s 679 mmHg 16%
    14:00 +36°C° 0 mm 3 m/s 679 mmHg 14%
    15:00 +36°C° 0 mm 3 m/s 678 mmHg 14%
    16:00 +36°C° 0 mm 4 m/s 678 mmHg 15%
    17:00 +36°C° 0 mm 4 m/s 678 mmHg 15%
    18:00 +33°C° 0 mm 3 m/s 678 mmHg 19%
    19:00 +29°C° 0 mm 3 m/s 677 mmHg 23%
    20:00 +26°C° 0 mm 2 m/s 677 mmHg 27%
    21:00 +25°C° 0 mm 2 m/s 677 mmHg 29%
    22:00 +25°C° 0 mm 2 m/s 677 mmHg 32%
    23:00 +24°C° 0 mm 1 m/s 678 mmHg 34%

    Après-demain, 7 Avril, Mardi

    Heure Température Précipitation Vent Pression Humidité
    00:00 +23°C° 0 mm 1 m/s 677 mmHg 35%
    01:00 +21°C° 0 mm 2 m/s 677 mmHg 36%
    02:00 +21°C° 0 mm 2 m/s 677 mmHg 37%
    03:00 +21°C° 0 mm 1 m/s 677 mmHg 37%
    04:00 +21°C° 0 mm 1 m/s 677 mmHg 36%
    05:00 +20°C° 0 mm 1 m/s 677 mmHg 36%
    06:00 +21°C° 0 mm 1 m/s 678 mmHg 33%
    07:00 +23°C° 0 mm 1 m/s 678 mmHg 30%
    08:00 +24°C° 0 mm 1 m/s 679 mmHg 27%
    09:00 +27°C° 0 mm 1 m/s 680 mmHg 23%
    10:00 +30°C° 0 mm 1 m/s 680 mmHg 19%
    11:00 +33°C° 0 mm 1 m/s 681 mmHg 15%
    12:00 +35°C° 0 mm 2 m/s 680 mmHg 15%
    13:00 +36°C° 0 mm 2 m/s 680 mmHg 15%
    14:00 +37°C° 0 mm 3 m/s 679 mmHg 15%
    15:00 +36°C° 0 mm 3 m/s 679 mmHg 15%
    16:00 +36°C° 0 mm 4 m/s 679 mmHg 16%
    17:00 +35°C° 0 mm 4 m/s 679 mmHg 16%
    18:00 +33°C° 0 mm 4 m/s 679 mmHg 18%
    19:00 +30°C° 0 mm 4 m/s 679 mmHg 19%
    20:00 +27°C° 0 mm 4 m/s 679 mmHg 21%
    21:00 +26°C° 0 mm 3 m/s 679 mmHg 22%
    22:00 +24°C° 0 mm 3 m/s 679 mmHg 22%
    23:00 +22°C° 0 mm 3 m/s 679 mmHg 23%

    8 Avril, Mercredi

    Heure Température Précipitation Vent Pression Humidité
    00:00 +21°C° 0 mm 3 m/s 679 mmHg 23%
    01:00 +20°C° 0 mm 2 m/s 679 mmHg 23%
    02:00 +20°C° 0 mm 2 m/s 679 mmHg 24%
    03:00 +20°C° 0 mm 2 m/s 680 mmHg 24%
    04:00 +20°C° 0 mm 2 m/s 680 mmHg 24%
    05:00 +21°C° 0 mm 1 m/s 681 mmHg 24%
    06:00 +20°C° 0 mm 3 m/s 681 mmHg 39%
    07:00 +21°C° 0 mm 5 m/s 682 mmHg 54%
    08:00 +21°C° 0 mm 7 m/s 682 mmHg 69%
    09:00 +22°C° 0 mm 7 m/s 683 mmHg 63%
    10:00 +24°C° 0 mm 8 m/s 683 mmHg 57%
    11:00 +26°C° 0 mm 8 m/s 683 mmHg 51%
    12:00 +27°C° 0 mm 8 m/s 683 mmHg 48%
    13:00 +28°C° 0 mm 7 m/s 683 mmHg 45%
    14:00 +29°C° 0 mm 7 m/s 682 mmHg 42%
    15:00 +29°C° 0 mm 7 m/s 682 mmHg 44%
    16:00 +28°C° 0 mm 6 m/s 682 mmHg 45%
    17:00 +27°C° 0 mm 6 m/s 682 mmHg 47%
    18:00 +26°C° 0 mm 6 m/s 682 mmHg 52%
    19:00 +23°C° 0 mm 6 m/s 682 mmHg 57%
    20:00 +21°C° 0 mm 6 m/s 683 mmHg 63%
    21:00 +21°C° 0 mm 6 m/s 683 mmHg 65%
    22:00 +20°C° 0 mm 6 m/s 684 mmHg 67%
    23:00 +20°C° 0 mm 6 m/s 684 mmHg 69%

    9 Avril, Jeudi

    Heure Température Précipitation Vent Pression Humidité
    00:00 +19°C° 0 mm 6 m/s 684 mmHg 70%
    01:00 +19°C° 0 mm 5 m/s 684 mmHg 71%
    02:00 +17°C° 0 mm 5 m/s 684 mmHg 72%
    03:00 +18°C° 0 mm 4 m/s 684 mmHg 74%
    04:00 +17°C° 0 mm 4 m/s 684 mmHg 76%
    05:00 +17°C° 0 mm 4 m/s 685 mmHg 79%
    06:00 +17°C° 0 mm 4 m/s 685 mmHg 76%
    07:00 +17°C° 0 mm 5 m/s 686 mmHg 74%
    08:00 +19°C° 0 mm 5 m/s 686 mmHg 71%
    09:00 +20°C° 0 mm 5 m/s 686 mmHg 68%
    10:00 +20°C° 0 mm 5 m/s 686 mmHg 64%
    11:00 +21°C° 0 mm 5 m/s 686 mmHg 61%
    12:00 +23°C° 0 mm 5 m/s 686 mmHg 55%
    13:00 +25°C° 0 mm 5 m/s 686 mmHg 49%
    14:00 +27°C° 0 mm 5 m/s 685 mmHg 43%
    15:00 +27°C° 0 mm 4 m/s 685 mmHg 42%
    16:00 +27°C° 0 mm 4 m/s 685 mmHg 40%
    17:00 +28°C° 0 mm 4 m/s 685 mmHg 38%
    18:00 +26°C° 0 mm 3 m/s 684 mmHg 43%
    19:00 +24°C° 0 mm 3 m/s 684 mmHg 47%
    20:00 +21°C° 0 mm 3 m/s 684 mmHg 52%
    21:00 +21°C° 0 mm 3 m/s 684 mmHg 55%
    22:00 +20°C° 0 mm 3 m/s 684 mmHg 58%
    23:00 +19°C° 0 mm 3 m/s 685 mmHg 62%

    10 Avril, Vendredi

    Heure Température Précipitation Vent Pression Humidité
    00:00 +19°C° 0 mm 3 m/s 685 mmHg 66%
    01:00 +18°C° 0 mm 3 m/s 685 mmHg 71%
    02:00 +17°C° 0 mm 3 m/s 685 mmHg 75%
    03:00 +16°C° 0 mm 2 m/s 684 mmHg 79%
    04:00 +16°C° 0 mm 2 m/s 684 mmHg 82%
    05:00 +15°C° 0 mm 2 m/s 684 mmHg 85%
    06:00 +16°C° 0 mm 2 m/s 685 mmHg 81%
    07:00 +17°C° 0 mm 3 m/s 685 mmHg 77%
    08:00 +17°C° 0 mm 3 m/s 685 mmHg 73%
    09:00 +20°C° 0 mm 3 m/s 685 mmHg 64%
    10:00 +22°C° 0 mm 3 m/s 686 mmHg 55%
    11:00 +25°C° 0 mm 3 m/s 686 mmHg 45%
    12:00 +27°C° 0 mm 3 m/s 685 mmHg 40%
    13:00 +28°C° 0 mm 2 m/s 685 mmHg 36%
    14:00 +30°C° 0 mm 2 m/s 684 mmHg 31%
    15:00 +30°C° 0 mm 2 m/s 684 mmHg 30%
    16:00 +30°C° 0 mm 2 m/s 683 mmHg 29%
    17:00 +30°C° 0 mm 1 m/s 683 mmHg 27%
    18:00 +28°C° 0 mm 2 m/s 683 mmHg 33%
    19:00 +25°C° 0 mm 2 m/s 682 mmHg 38%
    20:00 +23°C° 0 mm 2 m/s 682 mmHg 43%
    21:00 +21°C° 0 mm 2 m/s 682 mmHg 46%
    22:00 +20°C° 0 mm 2 m/s 682 mmHg 50%
    23:00 +20°C° 0 mm 1 m/s 682 mmHg 53%
    Voir plus